Time,TemperatureF,DewpointF,PressureIn,WindDirection,WindDirectionDegrees,WindSpeedMPH,WindSpeedGustMPH,Humidity,HourlyPrecipIn,Conditions,Clouds,dailyrainin,SoftwareType,DateUTC
2017-01-16 00:11:00,35.6,34.0,29.84,SE,125,0.0,0.0,93,0.01,,,0.00,weatherlink.com 1.10,2017-01-16 07:11:00,
2017-01-16 00:27:00,35.9,34.0,29.83,SE,125,0.0,0.0,93,0.01,,,0.00,weatherlink.com 1.10,2017-01-16 07:27:00,
2017-01-16 00:41:00,36.2,34.0,29.83,SE,125,0.0,0.0,93,0.00,,,0.00,weatherlink.com 1.10,2017-01-16 07:41:00,
2017-01-16 00:56:00,36.6,35.0,29.83,SE,125,0.0,0.0,94,0.00,,,0.00,weatherlink.com 1.10,2017-01-16 07:56:00,
2017-01-16 01:12:00,36.6,35.0,29.82,SE,125,0.0,0.0,93,0.00,,,0.00,weatherlink.com 1.10,2017-01-16 08:12:00,
2017-01-16 01:26:00,36.6,35.0,29.82,SE,125,0.0,0.0,93,0.00,,,0.00,weatherlink.com 1.10,2017-01-16 08:26:00,
2017-01-16 01:42:00,36.4,35.0,29.83,SE,125,0.0,0.0,93,0.00,,,0.00,weatherlink.com 1.10,2017-01-16 08:42:00,
2017-01-16 01:57:00,36.3,35.0,29.83,SE,125,0.0,0.0,93,0.00,,,0.00,weatherlink.com 1.10,2017-01-16 08:57:00,
2017-01-16 02:12:00,36.2,34.0,29.83,SE,125,0.0,0.0,93,0.00,,,0.00,weatherlink.com 1.10,2017-01-16 09:12:00,
2017-01-16 02:26:00,36.1,34.0,29.83,SE,125,0.0,0.0,93,0.00,,,0.00,weatherlink.com 1.10,2017-01-16 09:26:00,
2017-01-16 02:42:00,36.2,35.0,29.83,SE,125,0.0,0.0,94,0.00,,,0.00,weatherlink.com 1.10,2017-01-16 09:42:00,
2017-01-16 02:57:00,36.3,35.0,29.83,SE,125,0.0,0.0,94,0.00,,,0.00,weatherlink.com 1.10,2017-01-16 09:57:00,
2017-01-16 03:12:00,36.6,35.0,29.83,SE,125,0.0,0.0,94,0.00,,,0.00,weatherlink.com 1.10,2017-01-16 10:12:00,
2017-01-16 03:26:00,37.0,36.0,29.84,SE,125,0.0,0.0,94,0.00,,,0.00,weatherlink.com 1.10,2017-01-16 10:26:00,
2017-01-16 03:41:00,37.1,36.0,29.84,South,175,0.0,0.0,94,0.00,,,0.00,weatherlink.com 1.10,2017-01-16 10:41:00,
2017-01-16 03:57:00,36.9,35.0,29.83,South,175,0.0,0.0,94,0.00,,,0.00,weatherlink.com 1.10,2017-01-16 10:57:00,
2017-01-16 04:12:00,36.8,35.0,29.84,South,175,0.0,0.0,94,0.00,,,0.00,weatherlink.com 1.10,2017-01-16 11:12:00,
2017-01-16 04:27:00,36.7,35.0,29.83,South,175,0.0,0.0,94,0.00,,,0.00,weatherlink.com 1.10,2017-01-16 11:27:00,
2017-01-16 04:42:00,36.6,35.0,29.84,South,188,0.0,4.0,94,0.00,,,0.00,weatherlink.com 1.10,2017-01-16 11:42:00,
2017-01-16 04:57:00,36.4,35.0,29.84,South,181,0.0,2.0,93,0.00,,,0.00,weatherlink.com 1.10,2017-01-16 11:57:00,
2017-01-16 05:12:00,36.4,35.0,29.84,South,181,0.0,0.0,93,0.00,,,0.00,weatherlink.com 1.10,2017-01-16 12:12:00,
2017-01-16 05:27:00,36.4,35.0,29.85,South,181,0.0,0.0,94,0.00,,,0.00,weatherlink.com 1.10,2017-01-16 12:27:00,
2017-01-16 05:42:00,36.5,35.0,29.85,South,181,0.0,0.0,94,0.00,,,0.00,weatherlink.com 1.10,2017-01-16 12:42:00,
2017-01-16 05:57:00,36.6,35.0,29.85,South,181,0.0,0.0,94,0.00,,,0.00,weatherlink.com 1.10,2017-01-16 12:57:00,
2017-01-16 06:12:00,36.7,35.0,29.85,South,181,0.0,0.0,93,0.00,,,0.00,weatherlink.com 1.10,2017-01-16 13:12:00,
2017-01-16 06:27:00,36.9,35.0,29.86,South,180,0.0,0.0,93,0.00,,,0.00,weatherlink.com 1.10,2017-01-16 13:27:00,
2017-01-16 06:42:00,36.9,35.0,29.86,South,183,0.0,0.0,93,0.00,,,0.00,weatherlink.com 1.10,2017-01-16 13:42:00,
2017-01-16 06:57:00,36.9,35.0,29.86,South,182,0.0,2.0,92,0.00,,,0.00,weatherlink.com 1.10,2017-01-16 13:57:00,
2017-01-16 07:12:00,36.9,35.0,29.87,South,178,0.0,2.0,92,0.00,,,0.00,weatherlink.com 1.10,2017-01-16 14:12:00,
2017-01-16 07:27:00,36.9,35.0,29.88,South,180,0.0,1.0,92,0.00,,,0.00,weatherlink.com 1.10,2017-01-16 14:27:00,
2017-01-16 07:42:00,36.8,35.0,29.88,South,182,0.0,2.0,92,0.00,,,0.00,weatherlink.com 1.10,2017-01-16 14:42:00,
2017-01-16 07:57:00,36.8,35.0,29.88,South,177,0.0,1.0,91,0.00,,,0.00,weatherlink.com 1.10,2017-01-16 14:57:00,
2017-01-16 08:12:00,36.9,35.0,29.89,South,182,0.0,0.0,91,0.00,,,0.00,weatherlink.com 1.10,2017-01-16 15:12:00,
2017-01-16 08:27:00,37.0,35.0,29.90,SSW,192,2.0,4.0,91,0.00,,,0.00,weatherlink.com 1.10,2017-01-16 15:27:00,
2017-01-16 08:42:00,37.2,35.0,29.91,SSW,195,0.0,5.0,90,0.00,,,0.00,weatherlink.com 1.10,2017-01-16 15:42:00,
2017-01-16 09:57:00,37.7,35.0,29.94,South,186,0.0,2.0,90,0.00,,,0.00,weatherlink.com 1.10,2017-01-16 16:57:00,
2017-01-16 14:43:00,48.4,36.0,29.89,SW,236,0.0,8.0,63,0.00,,,0.00,weatherlink.com 1.10,2017-01-16 21:43:00,
2017-01-16 14:58:00,47.7,36.0,29.89,SW,227,0.0,3.0,64,0.00,,,0.00,weatherlink.com 1.10,2017-01-16 21:58:00,
2017-01-16 15:13:00,48.2,37.0,29.90,SW,227,0.0,0.0,65,0.00,,,0.00,weatherlink.com 1.10,2017-01-16 22:13:00,
2017-01-16 15:28:00,48.2,36.0,29.90,South,181,0.0,0.0,63,0.00,,,0.00,weatherlink.com 1.10,2017-01-16 22:28:00,
2017-01-16 15:43:00,48.3,36.0,29.91,South,181,0.0,0.0,63,0.00,,,0.00,weatherlink.com 1.10,2017-01-16 22:43:00,
2017-01-16 15:58:00,48.9,37.0,29.91,SE,140,0.0,4.0,64,0.00,,,0.00,weatherlink.com 1.10,2017-01-16 22:58:00,